FW0825 Weather Reports


time (UTC)temp
F
wind
direction
speed
knots
gust
knots
rain 1hr
in
rain 24hr
in
rain mn
in
humidity
%
barometer
mb
20260504045529 59 233 4.3 7.8 0.00 0.00 0.00 69 1006.1
20260504045028 59 190 4.3 8.7 0.00 0.00 0.00 69 1006.1
20260504044526 59 202 4.3 8.7 0.00 0.00 0.00 68 1006.0
20260504044244 59 192 5.2 7.8 0.00 0.00 0.00 69 1006.0
20260504043524 59 222 5.2 7.8 0.00 0.00 0.00 69 1006.0
20260504043018 59 200 5.2 7.8 0.00 0.00 0.00 69 1006.0
20260504042511 59 180 5.2 7.8 0.00 0.00 0.00 69 1005.9
20260504042227 59 225 4.3 7.8 0.00 0.00 0.00 69 1006.0
20260504041500 59 209 4.3 7.8 0.00 0.00 0.00 69 1006.0
20260504041000 59 221 4.3 7.8 0.00 0.00 0.00 69 1006.0
20260504040459 59 202 3.5 7.8 0.00 0.00 0.00 71 1006.0
20260504040000 59 215 3.5 7.0 0.00 0.00 0.00 73 1006.0
20260504035500 60 198 4.3 7.0 0.00 0.00 0.00 73 1005.9
20260504035000 60 205 4.3 7.0 0.00 0.00 0.00 72 1006.0
20260504034500 60 229 4.3 7.8 0.00 0.00 0.00 73 1006.0
20260504033959 60 207 4.3 7.8 0.00 0.00 0.00 71 1006.1
20260504033719 60 220 4.3 7.0 0.00 0.00 0.00 72 1006.1
20260504033000 59 176 4.3 7.0 0.00 0.00 0.00 73 1006.2
20260504032456 60 191 4.3 7.0 0.00 0.00 0.00 74 1006.2
20260504031956 59 206 3.5 7.0 0.00 0.00 0.00 74 1006.2
20260504031455 60 196 3.5 7.8 0.00 0.00 0.00 76 1006.3
20260504030956 60 182 4.3 7.8 0.00 0.00 0.00 74 1006.3
20260504030456 59 188 3.5 7.8 0.00 0.00 0.00 75 1006.3
20260504025956 60 193 4.3 7.0 0.00 0.00 0.00 74 1006.2
20260504025456 60 187 4.3 6.1 0.00 0.00 0.00 74 1006.3
20260504025438 60 180 4.3 7.0 0.00 0.00 0.00 74 1006.3
20260504024456 60 186 3.5 7.0 0.00 0.00 0.00 74 1006.3
20260504023948 59 176 3.5 6.1 0.00 0.00 0.00 72 1006.3
20260504023443 59 192 3.5 6.1 0.00 0.00 0.00 72 1006.3
20260504022937 58 196 1.7 6.1 0.00 0.00 0.00 74 1006.2
20260504022909 58 179 0.9 3.5 0.00 0.00 0.00 78 1006.3
20260504022152 59 226 0.9 2.6 0.00 0.00 0.00 78 1006.2
20260504021419 59 215 0.9 2.6 0.00 0.00 0.00 78 1006.2
20260504020912 60 215 1.7 2.6 0.00 0.00 0.00 76 1006.1
20260504020406 60 213 0.9 2.6 0.00 0.00 0.00 75 1006.1
20260504020120 60 219 0.9 2.6 0.00 0.00 0.00 74 1006.1
20260504015619 60 166 1.7 3.5 0.00 0.00 0.00 73 1006.0
20260504014850 60 166 1.7 3.5 0.00 0.00 0.00 72 1006.0
20260504014344 60 191 1.7 2.6 0.00 0.00 0.00 73 1006.1
20260504013837 60 191 1.7 3.5 0.00 0.00 0.00 71 1006.0
20260504013333 61 186 1.7 2.6 0.00 0.00 0.00 71 1006.0
20260504012834 62 221 0.9 1.7 0.00 0.00 0.00 71 1006.0
20260504012333 62 221 0.9 2.6 0.00 0.00 0.00 70 1005.9
20260504011834 63 221 0.9 2.6 0.00 0.00 0.00 67 1006.0
20260504011330 63 221 0.0 2.6 0.00 0.00 0.00 63 1005.9
20260504010830 64 221 0.0 0.9 0.00 0.00 0.00 59 1005.8
20260504010330 64 221 0.0 0.9 0.00 0.00 0.00 58 1005.7
20260504005827 65 221 0.9 1.7 0.00 0.00 0.00 56 1005.6
20260504005327 65 221 1.7 2.6 0.00 0.00 0.00 56 1005.7
20260504004828 66 221 1.7 2.6 0.00 0.00 0.00 54 1005.7
20260504004326 67 221 1.7 2.6 0.00 0.00 0.00 53 1005.6
20260504003824 67 221 1.7 3.5 0.00 0.00 0.00 51 1005.6
20260504003324 68 215 2.6 6.1 0.00 0.00 0.00 50 1005.6
20260504002823 68 193 2.6 6.1 0.00 0.00 0.00 50 1005.7
20260504002321 68 221 2.6 6.1 0.00 0.00 0.00 47 1005.6
20260504002045 69 262 3.5 11.3 0.00 0.00 0.00 47 1005.7
20260504001321 69 273 4.3 11.3 0.00 0.00 0.00 50 1005.8
20260504000822 69 248 3.5 7.8 0.00 0.00 0.00 48 1005.8
20260504000321 69 231 4.3 7.8 0.00 0.00 0.00 49 1005.7
20260503235815 69 223 4.3 7.8 0.00 0.00 0.00 49 1005.6
20260503235308 69 214 4.3 9.6 0.00 0.00 0.00 50 1005.7
20260503234803 69 244 5.2 9.6 0.00 0.00 0.00 49 1005.6
20260503234257 69 335 6.1 11.3 0.00 0.00 0.00 49 1005.6
20260503233751 69 264 6.1 11.3 0.00 0.00 0.00 49 1005.7
20260503233245 68 237 6.1 9.6 0.00 0.00 0.00 49 1005.6
20260503232739 68 217 6.1 9.6 0.00 0.00 0.00 50 1005.7
20260503232237 68 215 7.0 11.3 0.00 0.00 0.00 49 1005.7
20260503231737 68 209 6.1 11.3 0.00 0.00 0.00 48 1005.8
20260503231237 68 263 7.0 13.0 0.00 0.00 0.00 50 1005.9
20260503230738 68 256 7.8 13.0 0.00 0.00 0.00 48 1005.8
20260503230237 68 276 8.7 15.6 0.00 0.00 0.00 47 1005.9
20260503225737 68 175 7.8 15.6 0.00 0.00 0.00 48 1006.0
20260503225237 68 273 7.0 13.9 0.00 0.00 0.00 48 1006.0
20260503224737 68 221 7.8 14.8 0.00 0.00 0.00 49 1006.0
20260503224237 68 219 7.8 14.8 0.00 0.00 0.00 50 1006.3
20260503223737 68 282 7.8 15.6 0.00 0.00 0.00 48 1006.2
20260503223237 68 234 8.7 16.5 0.00 0.00 0.00 48 1006.3
20260503222737 68 213 7.8 16.5 0.00 0.00 0.00 49 1006.1
20260503222237 67 270 7.8 17.4 0.00 0.00 0.00 48 1006.1
20260503221738 67 228 9.6 17.4 0.00 0.00 0.00 49 1006.1
20260503221237 68 250 9.6 16.5 0.00 0.00 0.00 47 1006.2
20260503220737 68 260 8.7 19.1 0.00 0.00 0.00 47 1006.1
20260503220238 67 256 10.4 19.1 0.00 0.00 0.00 48 1006.0
20260503215734 67 227 10.4 16.5 0.00 0.00 0.00 49 1006.0
20260503215235 67 246 10.4 20.0 0.00 0.00 0.00 51 1006.1
20260503214736 67 225 10.4 20.0 0.00 0.00 0.00 49 1006.0
20260503214234 67 236 10.4 18.2 0.00 0.00 0.00 51 1006.1
20260503213735 66 214 10.4 16.5 0.00 0.00 0.00 51 1006.2
20260503213237 66 188 11.3 18.2 0.00 0.00 0.00 55 1006.2
20260503212736 66 182 10.4 18.2 0.00 0.00 0.00 54 1006.3
20260503212235 66 228 9.6 20.9 0.00 0.00 0.00 52 1006.3
20260503211958 65 294 10.4 20.9 0.00 0.00 0.00 53 1006.4
20260503211235 65 248 13.0 20.9 0.00 0.00 0.00 54 1006.4
20260503210735 65 202 13.9 20.9 0.00 0.00 0.00 55 1006.6
20260503210235 64 198 13.9 21.7 0.00 0.00 0.00 57 1006.6
20260503205735 64 202 13.9 25.2 0.00 0.00 0.00 55 1006.7
20260503205235 64 187 13.9 25.2 0.00 0.00 0.00 56 1007.0
20260503204735 64 207 13.9 23.5 0.00 0.00 0.00 55 1006.8
20260503204234 64 233 14.8 25.2 0.00 0.00 0.00 53 1007.2
20260503203735 64 229 15.6 25.2 0.00 0.00 0.00 51 1007.4
20260503203235 64 219 14.8 23.5 0.00 0.00 0.00 55 1007.4
20260503202735 64 205 13.9 21.7 0.00 0.00 0.00 52 1007.7
20260503202235 64 227 13.0 20.9 0.00 0.00 0.00 53 1007.7
20260503202002 63 229 13.0 20.9 0.00 0.00 0.00 57 1007.7
20260503201235 63 207 13.9 26.9 0.00 0.00 0.00 57 1007.7
20260503200734 62 183 13.0 26.9 0.00 0.00 0.00 60 1007.8
20260503200456 62 197 12.2 23.5 0.00 0.00 0.00 60 1007.8
20260503195734 62 202 11.3 23.5 0.00 0.00 0.00 62 1008.0
20260503195234 61 191 12.2 20.9 0.00 0.00 0.00 65 1008.2
20260503195000 61 175 13.0 22.6 0.00 0.00 0.00 64 1008.3
20260503194454 61 203 12.2 22.6 0.00 0.00 0.00 65 1008.5
20260503193735 60 184 13.0 21.7 0.00 0.00 0.00 67 1008.8
20260503193236 60 173 13.9 21.7 0.00 0.00 0.00 64 1008.9
20260503192959 60 207 13.9 25.2 0.00 0.00 0.00 67 1009.1
20260503192235 59 188 14.8 25.2 0.00 0.00 0.00 67 1009.1
20260503191734 60 244 13.9 25.2 0.00 0.00 0.00 66 1009.2
20260503191228 60 194 13.9 23.5 0.00 0.00 0.00 65 1009.1
20260503190728 60 188 13.9 20.9 0.00 0.00 0.00 65 1009.2
20260503190228 60 208 12.2 20.9 0.00 0.00 0.00 62 1009.2
20260503185728 60 192 11.3 20.9 0.00 0.00 0.00 63 1008.9
20260503185227 60 179 11.3 18.2 0.00 0.00 0.00 64 1008.9
20260503184953 59 185 12.2 23.5 0.00 0.00 0.00 64 1008.9
20260503184717 59 207 11.3 23.5 0.00 0.00 0.00 63 1008.9
20260503183724 59 175 11.3 20.0 0.00 0.00 0.00 63 1009.0
20260503183225 59 185 12.2 20.0 0.00 0.00 0.00 65 1009.0
20260503182725 59 174 13.0 24.3 0.00 0.00 0.00 62 1009.1
20260503182224 58 155 13.9 24.3 0.00 0.00 0.00 64 1009.2
20260503181942 58 223 13.9 24.3 0.00 0.00 0.00 60 1009.2
20260503181452 59 182 13.0 25.2 0.00 0.00 0.00 63 1009.2
20260503180722 58 173 12.2 25.2 0.00 0.00 0.00 60 1009.4
20260503180223 58 184 13.0 22.6 0.00 0.00 0.00 62 1009.5
20260503175948 58 188 11.3 20.9 0.00 0.00 0.00 64 1009.4
20260503175225 58 173 12.2 20.9 0.00 0.00 0.00 62 1009.4
20260503174718 58 182 12.2 20.0 0.00 0.00 0.00 66 1009.7
20260503174212 57 186 11.3 20.0 0.00 0.00 0.00 64 1009.7
20260503173706 57 190 11.3 20.0 0.00 0.00 0.00 66 1009.8
20260503173643 57 175 10.4 19.1 0.00 0.00 0.00 68 1010.0
20260503172920 57 202 10.4 20.0 0.00 0.00 0.00 67 1010.2
20260503172148 56 136 11.3 20.0 0.00 0.00 0.00 68 1010.3
20260503171642 56 160 10.4 21.7 0.00 0.00 0.00 68 1010.5
20260503171137 56 188 12.2 21.7 0.00 0.00 0.00 69 1010.7
20260503170630 55 192 12.2 21.7 0.00 0.00 0.00 71 1010.8
20260503170124 55 165 12.2 20.9 0.00 0.00 0.00 71 1011.0
20260503150916 54 222 13.0 22.6 0.00 0.00 0.00 67 1013.5
20260503150415 54 233 13.0 22.6 0.00 0.00 0.00 66 1013.5
20260503130912 51 253 12.2 20.0 0.00 0.00 0.00 64 1014.2
20260503130412 51 196 12.2 18.2 0.00 0.00 0.00 64 1014.0
20260503110359 50 205 8.7 13.9 0.00 0.00 0.00 65 1013.5
20260503100251 49 208 8.7 13.0 0.00 0.00 0.00 62 1013.7
20260503090207 49 217 7.0 11.3 0.00 0.00 0.00 62 1014.1
20260503081209 49 201 7.8 12.2 0.00 0.00 0.00 64 1014.5
20260503080930 50 218 7.8 11.3 0.00 0.00 0.00 65 1014.5
20260503080210 49 205 7.8 11.3 0.00 0.00 0.00 65 1014.5
20260503072631 49 201 7.0 9.6 0.00 0.00 0.00 65 1014.5
20260503072612 49 213 7.0 9.6 0.00 0.00 0.00 63 1014.6
20260503071631 49 212 7.0 9.6 0.00 0.00 0.00 66 1014.6
20260503071131 49 200 7.0 10.4 0.00 0.00 0.00 65 1014.6
20260503070631 49 200 7.0 10.4 0.00 0.00 0.00 64 1014.7
20260503070132 49 234 6.1 9.6 0.00 0.00 0.00 65 1014.7
20260503055129 49 196 6.1 10.4 0.00 0.00 0.00 67 1015.3
20260503054628 49 184 6.1 8.7 0.00 0.00 0.00 67 1015.4
20260503054129 49 179 5.2 8.7 0.00 0.00 0.00 67 1015.3
20260503053851 49 223 5.2 7.8 0.00 0.00 0.00 67 1015.3
20260503053128 49 197 5.2 8.7 0.00 0.00 0.00 68 1015.4
20260503052629 49 242 6.1 10.4 0.00 0.00 0.00 68 1015.4
20260503052129 49 217 6.1 10.4 0.00 0.00 0.00 67 1015.4
20260503051628 49 184 6.1 8.7 0.00 0.00 0.00 68 1015.6
20260503051129 49 211 6.1 10.4 0.00 0.00 0.00 67 1015.7
20260503050627 49 196 6.1 10.4 0.00 0.00 0.00 67 1015.6
20260503050126 49 215 6.1 10.4 0.00 0.00 0.00 66 1015.6